Location: Asheville, NC
(35.6000°N, 82.5500°W)
Time: 04:42:42
(UTC-04:00)

Vanguard 2 Rocket - Pass Details

Date: 13 December 2017
Orbit: 554 x 3327 km, 32.9° (Epoch: 17 July)

Event Time Altitude Azimuth Distance (km) Brightness Sun altitude
Rises 22:00:37 0° 267° (W) 5,694 11.5 -56.5°
Reaches altitude 10° 22:03:48 10° 266° (W) 4,988 11.0 -57.1°
Enters shadow 22:13:20 51° 260° (W) 3,404 9.6 -59.0°
Maximum altitude 22:19:53 82° 182° (S) 3,163 - -60.3°
Drops below altitude 10° 22:40:32 10° 98° (E) 6,164 - -64.3°
Sets 22:45:00 0° 98° (E) 7,030 - -65.1°
